Location: Elbart
(49.6135°N, 11.9134°E)
Time: 22:58:25
(UTC+00:00)

SL-4 R/B - Pass Details

Date: 09 April 2020
Orbit: 428 x 666 km, 51.6° (Epoch: 26 May)

Event Time Altitude Azimuth Distance (km) Brightness Sun altitude
Rises 20:42:23 0° 280° (W) 2,395 6.1 -23.6°
Reaches altitude 10° 20:44:29 10° 283° (WNW) 1,534 5.0 -23.9°
Enters shadow 20:46:58 43° 306° (NW) 630 2.7 -24.1°
